Regional Weather Roundup
Issued by NWS

Home | Current Version | Previous Version | Graphics & Text | Print | Product List | Glossary On
Versions: 1 2 3 4 5 6 7 8 9 10 11 12 13 14 15 16 17 18 19 20 21 22 23 24 25 26 27 28 29 30 31 32 33 34 35 36 37 38 39 40 41 42 43 44 45 46 47 48 49 50
000
ASUS43 KFSD 220310
RWRSD

WEATHER ROUNDUP FOR SOUTH DAKOTA
NATIONAL WEATHER SERVICE SIOUX FALLS SD
1000 PM CDT MON AUG 21 2017

NOTE: "FAIR" INDICATES FEW OR NO CLOUDS BELOW 12,000 FEET WITH NO
SIGNIFICANT WEATHER AND/OR OBSTRUCTIONS TO VISIBILITY.


SDZ001>005-009-010-012>017-220400-
NORTHWEST AND NORTH CENTRAL SOUTH DAKOTA

CITY           SKY/WX    TMP DP  RH WIND       PRES   REMARKS
BUFFALO          N/A     64  40  41 N7        30.12R
FAITH            N/A     62  47  57 N8        30.15R
MOBRIDGE       CLEAR     62  49  62 N9        30.07R
$$

SDZ012>016-024>037-041>051-057-063-072>074-220400-
SOUTHWEST AND SOUTH CENTRAL SOUTH DAKOTA

CITY           SKY/WX    TMP DP  RH WIND       PRES   REMARKS
RAPID CTY ARPT CLEAR     62  40  44 NE9       30.18R
PIERRE         CLEAR     67  50  54 N14       30.07R
CUSTER         CLEAR     60  34  37 NE10      30.29R
ELLSWORTH AFB  CLEAR     69  39  33 NE6       30.18R
PHILIP         CLEAR     62  45  53 N9        30.12R
SPEARFISH      FAIR      59  41  51 S9        30.23R
WINNER         FAIR      65  57  75 N7        30.09R
$$

SDZ004>011-016>023-039-040-220400-
NORTHEAST SOUTH DAKOTA

CITY           SKY/WX    TMP DP  RH WIND       PRES   REMARKS
ABERDEEN       CLEAR     64  51  62 NW10      30.03R
WATERTOWN      CLEAR     66  60  81 NW10      29.99R
BROOKINGS      CLEAR     64  61  90 CALM      29.99S
SISSETON         N/A     63  59  87 NW8       29.96R
$$

SDZ017-020-022-023-036>040-048>070-220400-
SOUTHEAST SOUTH DAKOTA

CITY           SKY/WX    TMP DP  RH WIND       PRES   REMARKS
SIOUX FALLS    PTCLDY    67  66  97 W3        29.99R
HURON          CLEAR     62  58  86 NW10      30.02R
CHAMBERLAIN    CLEAR     70  58  67 NW8       30.06R
MITCHELL       CLEAR     65  63  93 NW6       30.01R
YANKTON        PTCLDY    66  64  93 S5        30.02
$$

ABBREVIATIONS USED IN REMARKS
   TC - TEMPERATURE IN CELSIUS
  WCI - WIND CHILL INDEX
   HX - HEAT INDEX
  VSB - VISIBILITY




USA.gov is the U.S. government's official web portal to all federal, state and local government web resources and services.